Weather History for Waukegan, IL

Change the Weather History Date:

Monday, February 4, 2013

  Actual Average Record
Temperature  
Mean Temperature 18 °F -  
Max Temperature 26 °F 31 °F 48 °F (2005)
Min Temperature 10 °F 16 °F -9 °F (2007)
Degree Days  
Heating Degree Days 47 42  
Month to date heating degree days 209 168  
Since 1 July heating degree days 3669 4019  
Cooling Degree Days 0 0  
Month to date cooling degree days 0 0  
Year to date cooling degree days 0 0  
Moisture  
Dew Point 16 °F    
Average Humidity 79    
Maximum Humidity 92    
Minimum Humidity 66    
Precipitation  
Precipitation T in 0.05 in 0.37 in (2008)
Month to date precipitation 0.02 0.20  
Year to date precipitation 1.30 1.59  
Sea Level Pressure  
Sea Level Pressure 29.94 in    
Wind  
Wind Speed 6 mph (North)    
Max Wind Speed 16 mph    
Max Gust Speed 21 mph    
Visibility 4 miles    
Events Snow    
T = Trace of Precipitation, MM = Missing Value Source: NWS Daily Summary

Daily Weather History Graph

Daily Weather History Graph

Search for Another Location

Airport:

Trip Planner

Search our weather history database for the weather conditions in past years. The results will help you decide how hot, cold, wet, or windy it might be!

Date:

Astronomy

Feb. 04, 2013 Rise Set
Actual Time 7:01 AM CST 5:09 PM CST
Civil Twilight 6:32 AM CST 5:39 PM CST
Nautical Twilight 5:58 AM CST 6:12 PM CST
Astronomical Twilight 5:25 AM CST 6:45 PM CST
Moon 1:38 AM CST (2/4) 11:31 AM CST (2/4)
Length of Visible Light 11h 07m
Length of Day
10h 08m
Last Quarter, 37% of the Moon is Illuminated
Feb 4
Last Quarter
Feb 10
New
Feb 17
First Quarter
Feb 25
Full
Mar 4
Last Quarter

Hourly Weather History & Observations

Time (CST) Temp. Windchill Dew Point Humidity Pressure Visibility Wind Dir Wind Speed Gust Speed Precip Events Conditions
12:03 AM 17.6 °F - 14.0 °F 86% 30.01 in 2.5 mi Calm Calm - 0.00 in Snow Light Snow
12:49 AM 17.6 °F - 15.8 °F 93% 29.99 in 1.8 mi Calm Calm - 0.00 in Snow Light Snow
12:52 AM 18.0 °F - 15.1 °F 88% 30.06 in 1.8 mi Calm Calm - 0.00 in Snow Light Snow
1:30 AM 17.6 °F - 15.8 °F 93% 29.98 in 1.5 mi Calm Calm - 0.00 in Snow Light Snow
1:52 AM 18.0 °F - 15.1 °F 88% 30.04 in 1.2 mi Calm Calm - 0.00 in Snow Light Snow
2:40 AM 17.6 °F 12.3 °F 15.8 °F 93% 29.94 in 1.5 mi East 3.5 mph - 0.00 in Snow Light Snow
2:52 AM 18.0 °F 12.7 °F 16.0 °F 92% 30.00 in 1.5 mi East 3.5 mph - 0.00 in Snow Light Snow
3:18 AM 17.6 °F - 15.8 °F 93% 29.92 in 1.2 mi Calm Calm - 0.00 in Snow Light Snow
5:48 AM 19.4 °F 14.3 °F 15.8 °F 86% 29.92 in 2.5 mi North 3.5 mph - 0.00 in Snow Light Snow
5:52 AM 19.0 °F 13.9 °F 16.0 °F 88% 29.98 in 4.0 mi North 3.5 mph - 0.00 in Snow Light Snow
6:52 AM 19.0 °F 10.0 °F 16.0 °F 88% 29.96 in 8.0 mi NNE 6.9 mph - 0.00 in   Overcast
7:52 AM 21.9 °F 13.4 °F 18.0 °F 85% 29.95 in 4.0 mi NNE 6.9 mph - 0.00 in Snow Light Snow
8:28 AM 23.0 °F 15.8 °F 19.4 °F 86% 29.89 in 3.0 mi NE 5.8 mph - 0.00 in Snow Light Snow
8:43 AM 23.0 °F 15.8 °F 19.4 °F 86% 29.89 in 4.0 mi NE 5.8 mph - 0.00 in Snow Light Snow
8:52 AM 24.1 °F 17.0 °F 19.9 °F 84% 29.94 in 3.0 mi NNE 5.8 mph - 0.00 in Snow Light Snow
9:02 AM 24.8 °F 16.9 °F 19.4 °F 80% 29.89 in 3.0 mi NNE 6.9 mph - 0.00 in Snow Light Snow
9:05 AM 24.8 °F 16.9 °F 19.4 °F 80% 29.88 in 2.5 mi NNE 6.9 mph - 0.00 in Snow Light Snow
9:13 AM 24.8 °F 16.9 °F 19.4 °F 80% 29.89 in 1.8 mi NNE 6.9 mph - 0.00 in Snow Light Snow
9:52 AM 24.1 °F 15.2 °F 21.0 °F 88% 29.94 in 1.8 mi North 8.1 mph - 0.00 in Snow Light Snow
10:19 AM 24.8 °F 16.9 °F 21.2 °F 86% 29.87 in 1.8 mi NNE 6.9 mph - 0.00 in Snow Light Snow
10:50 AM 24.8 °F 14.6 °F 21.2 °F 86% 29.88 in 3.0 mi North 10.4 mph - 0.00 in Snow Light Snow
10:51 AM 25.0 °F 14.8 °F 21.9 °F 88% 29.94 in 3.0 mi North 10.4 mph - 0.00 in Snow Light Snow
11:52 AM 26.1 °F 16.2 °F 21.9 °F 84% 29.92 in 2.0 mi North 10.4 mph - 0.00 in Snow Light Snow
12:52 PM 26.1 °F 15.0 °F 21.0 °F 81% 29.92 in 3.0 mi North 12.7 mph 20.7 mph 0.00 in Snow Light Snow
1:52 PM 24.1 °F 16.0 °F 19.0 °F 81% 29.93 in 3.0 mi NNW 6.9 mph - 0.00 in Snow Light Snow
2:29 PM 23.0 °F 14.7 °F 19.4 °F 86% 29.89 in 3.0 mi NNW 6.9 mph - 0.00 in Snow Light Snow
2:49 PM 21.2 °F 9.5 °F 17.6 °F 86% 29.88 in 3.0 mi NNW 11.5 mph - 0.00 in Snow Light Snow
2:52 PM 21.9 °F 12.5 °F 18.0 °F 85% 29.94 in 3.0 mi NNW 8.1 mph 16.1 mph 0.00 in Snow Light Snow
3:38 PM 21.2 °F 12.6 °F 17.6 °F 86% 29.87 in 3.0 mi NNW 6.9 mph - 0.00 in Snow Light Snow
3:52 PM 21.9 °F 13.4 °F 17.1 °F 82% 29.94 in 4.0 mi NNW 6.9 mph - 0.00 in Snow Light Snow
4:13 PM 21.2 °F 10.9 °F 17.6 °F 86% 29.88 in 4.0 mi NNW 9.2 mph - 0.00 in Snow Light Snow
5:48 PM 19.4 °F 7.9 °F 14.0 °F 80% 29.92 in 9.0 mi NNW 10.4 mph - N/A   Overcast
5:52 PM 19.9 °F 9.3 °F 14.0 °F 78% 29.98 in 8.0 mi NW 9.2 mph - N/A   Overcast
6:21 PM 19.4 °F 10.4 °F 12.2 °F 74% 29.93 in 5.0 mi NW 6.9 mph - 0.00 in Snow Light Snow
6:52 PM 18.0 °F 9.8 °F 12.9 °F 81% 29.99 in 6.0 mi NW 5.8 mph - 0.00 in Snow Light Snow
7:52 PM 16.0 °F 10.4 °F 10.9 °F 81% 29.99 in 10.0 mi NW 3.5 mph - 0.00 in   Clear
8:52 PM 15.1 °F 5.2 °F 8.1 °F 74% 30.01 in 10.0 mi NW 6.9 mph - N/A   Scattered Clouds
9:52 PM 12.0 °F 2.7 °F 3.0 °F 67% 30.01 in 10.0 mi NW 5.8 mph - N/A   Clear
10:52 PM 10.9 °F 4.7 °F 1.0 °F 64% 30.00 in 10.0 mi WNW 3.5 mph - N/A   Clear
11:52 PM 10.0 °F 3.6 °F 1.0 °F 67% 30.01 in 10.0 mi West 3.5 mph - N/A   Scattered Clouds